Location: Recife
(8.0585°S, 34.8848°W)
Time: 11:41:08
(UTC-03:00)

A-11 Canister half - Visible Passes

Search period start: 14 April 2026 00:00
Search period end: 24 April 2026 00:00
Orbit: 1523 x 1684 km, 47.3° (Epoch: 14 April)

Date Brightness Start Highest point End Pass type
(mag) Time Alt. Az. Time Alt. Az. Time Alt. Az.
14 Apr 10.2 19:25:15 10° SSW 19:29:37 24° S 19:29:37 24° S visible
15 Apr 10.0 19:03:35 10° S 19:09:26 26° SSE 19:09:26 26° SSE visible
15 Apr 11.1 21:06:58 10° SW 21:07:45 13° SW 21:07:45 13° SW visible
16 Apr 9.9 18:41:57 10° S 18:49:22 26° SE 18:49:22 26° SE visible
16 Apr 10.6 20:45:06 10° SW 20:47:42 21° SW 20:47:42 21° SW visible
17 Apr 9.9 18:20:21 10° S 18:27:35 24° SE 18:29:27 23° ESE visible
17 Apr 10.1 20:23:14 10° SW 20:27:48 33° SW 20:27:48 33° SW visible
18 Apr 10.0 17:58:45 10° S 18:05:40 22° SE 18:09:44 17° ESE visible
18 Apr 9.5 20:01:22 10° SW 20:08:06 52° SW 20:08:06 52° SW visible
19 Apr 10.1 17:37:11 10° S 17:43:45 20° SE 17:50:14 10° E visible
19 Apr 8.9 19:39:32 10° SW 19:48:38 82° WSW 19:48:38 82° WSW visible
20 Apr 8.9 19:17:43 10° SW 19:27:16 88° SE 19:29:27 61° NE visible
20 Apr 11.1 21:26:12 10° W 21:27:52 13° W 21:27:52 13° W visible
21 Apr 8.9 18:55:54 10° SW 19:05:26 83° SE 19:10:40 32° NE visible
21 Apr 10.8 21:03:54 10° W 21:09:07 19° WNW 21:09:07 19° WNW visible
22 Apr 8.9 18:34:05 10° SW 18:43:34 78° SE 18:52:28 13° NE visible
22 Apr 10.7 20:41:39 10° W 20:48:25 21° NW 20:51:00 19° NNW visible
23 Apr 8.9 18:12:18 10° SW 18:21:44 73° SE 18:31:26 10° NE visible
23 Apr 10.7 20:19:28 10° W 20:26:32 23° NW 20:33:48 10° N visible
